Regional Weather Roundup
Issued by NWS

Home | Current Version | Previous Version | Text Only | Print | Product List | Glossary Off
Versions: 1 2 3 4 5 6 7 8 9 10 11 12 13 14 15 16 17 18 19 20 21 22 23 24 25 26 27 28 29 30 31 32 33 34 35 36 37 38 39 40 41 42 43 44 45 46 47 48 49 50

000
ASUS45 KBOU 060510
RWRCO

WEATHER ROUNDUP FOR COLORADO
NATIONAL WEATHER SERVICE DENVER/BOULDER CO
1100 PM MDT SUN JUL 05 2015

NOTE: "FAIR" INDICATES FEW OR NO CLOUDS BELOW 12000 FEET WITH NO
SIGNIFICANT WEATHER AND/OR OBSTRUCTIONS TO VISIBILITY.

COZ001>005-013-030-031-060600-
...NORTHWEST COLORADO...

CITY           SKY/WX    TMP DP  RH WIND       PRES   REMARKS
CRAIG          PTCLDY    55  53  93 CALM      30.21R
HAYDEN         PTCLDY    57  54  88 E5        30.22S
MEEKER         PTCLDY    56  53  90 NE5       30.21R
MOUNT WERNER   NOT AVBL
STEAMBOAT SPGS PTCLDY    55  54  96 E3        30.24S
WALDEN         MOCLDY    54  52  94 CALM      30.29R
$$

COZ006>008-011-060600-
...WEST CENTRAL VALLEYS...

CITY           SKY/WX    TMP DP  RH WIND       PRES   REMARKS
GRAND JUNCTION MOCLDY    65  59  81 SE8       30.11R
MONTROSE       PTCLDY    62  56  80 CALM      30.20R
EAGLE          MOCLDY    63  61  94 CALM      30.24S
RIFLE          PTCLDY    63  57  81 CALM      30.16R
DELTA          PTCLDY    64  61  90 CALM      30.16R
NUCLA          PTCLDY    64  54  68 E7        30.22R
$$

COZ017>023-064>068-060600-
...SOUTHWEST COLORADO...

CITY           SKY/WX    TMP DP  RH WIND       PRES   REMARKS
DURANGO        PTCLDY    64  49  57 CALM      30.19R
CORTEZ         CLEAR     67  54  63 W15G26    30.21R
PAGOSA SPRINGS PTCLDY    60  51  71 W3        30.28R
TELLURIDE      PTCLDY    53  51  92 CALM      30.42R
WOLF CREEK PAS NOT AVBL
$$

COZ009-010-012-014-032>034-037-058>063-060600-
...CENTRAL COLORADO...

CITY           SKY/WX    TMP DP  RH WIND       PRES   REMARKS
ASPEN          CLOUDY    58  54  86 S6        30.30S
BUENA VISTA    CLOUDY    65  47  52 NW8       30.27R
COPPER MTN     DRIZZLE   46  43  87 W10G16    30.57F
BERTHOUD PASS  RAIN      39  30  70 NW28G37   30.57F
COTTONWOOD PAS NOT AVBL
GUNNISON       MOCLDY    55  48  76 E6        30.33S
KREMMLING      CLOUDY    59  52  77 SW6       30.27F
LEADVILLE      LGT RAIN  49  49 100 NE6       30.43R
SALIDA         CLOUDY    65  51  59 SW8       30.31R
SUNLIGHT       MOCLDY    50  48  93 NE3       30.52S
WILKERSON PASS CLOUDY    50  45  81 NW12G18   30.52S
$$

COZ069>075-060600-
...SAN LUIS VALLEY/SANGRE DE CRISTO MOUNTAINS...

CITY           SKY/WX    TMP DP  RH WIND       PRES   REMARKS
ALAMOSA        CLOUDY    59  55  87 CALM      30.26S
LA VETA PASS   MOCLDY    52  45  76 MISG      30.42R
SAGUACHE       MOCLDY    59  52  77 NW10      30.29S
$$

COZ035-036-038>040-060600-
...NORTHERN COLORADO FRONT RANGE...

CITY           SKY/WX    TMP DP  RH WIND       PRES   REMARKS
DENVER INTL AP CLOUDY    66  59  78 NE8       30.10R
DMNS CITY PARK   N/A     67  56  68 N9G15     30.11R
AURORA         MOCLDY    64  60  89 NE3       30.12R
FRONT RANGE AP NOT AVBL
ERIE MUNI ARPT CLOUDY    64  60  85 CALM      30.08S
BOULDER MUN AP CLOUDY    64  63  94 CALM      30.07F
CENTENNIAL     CLOUDY    66  58  75 N7        30.13R
BROOMFIELD     NOT AVBL
FORT COLLINS   CLOUDY    66  57  72 NE9       30.08S
LONGMONT       CLOUDY    67  62  84 CALM      30.08F
$$

COZ041-046-047-076>085-087-088-060600-
...PIKES PEAK/PALMER DIVIDE AND SOUTHERN FOOTHILLS...

CITY           SKY/WX    TMP DP  RH WIND       PRES   REMARKS
COLO. SPRINGS  CLOUDY    70  52  52 N18       30.09S
A. F. ACADEMY  CLOUDY    66  54  66 N15G21    30.13R
ELLICOTT       CLOUDY   N/A N/A N/A NE16G28   30.08S
FALCON         CLOUDY    64  54  71 N14G20    30.17R
FORT CARSON    CLOUDY    67  57  69 N8        30.06R
LIMON          CLOUDY    67  57  70 N21G32    30.06R
MONUMENT HILL  LGT RAIN  59  55  88 MISG      30.21R
TRINIDAD       CLOUDY    74  54  49 N7G20     30.07R
$$

COZ042>045-048>051-090-091-060600-
...NORTHEAST COLORADO...

CITY           SKY/WX    TMP DP  RH WIND       PRES   REMARKS
GREELEY ARPT   CLOUDY    66  59  77 N12       30.06S
AKRON          CLOUDY    66  62  87 N15       30.03R
BURLINGTON     CLOUDY    71  59  65 N16       29.96R
WRAY           CLOUDY    73  61  67 N14       29.94S
STERLING       CLOUDY    68  63  83 N14G20      N/A
HOLYOKE        CLOUDY    73  64  73 N17G24    29.94R
FORT MORGAN    CLOUDY    68  58  70 N21       30.03R
$$

COZ086-089-092>099-060600-
...SOUTHEAST COLORADO...

CITY           SKY/WX    TMP DP  RH WIND       PRES   REMARKS
PUEBLO         CLOUDY    77  56  48 VRB5      30.00R
LA JUNTA       MOCLDY    78  55  44 N12       29.95R
LAMAR          MOCLDY    79  58  48 N10G24    29.87R
SPRINGFIELD      N/A     73  59  61 S10       29.94S
$$


USA.gov is the U.S. government's official web portal to all federal, state and local government web resources and services.